Weather History for KSRQ - March, 2014

Change the Weather History Date:

Tuesday, March 25, 2014

  Actual Average Record
Temperature  
Mean Temperature 68 °F 68 °F  
Max Temperature 73 °F 77 °F 90 °F (1929)
Min Temperature 62 °F 58 °F 32 °F (1915)
Degree Days  
Heating Degree Days 0 1  
Month to date heating degree days 22 44  
Since 1 July heating degree days 330 462  
Cooling Degree Days 3 4  
Month to date cooling degree days 71 78  
Year to date cooling degree days 187 182  
Growing Degree Days 18 (Base 50)    
Moisture  
Dew Point 60 °F    
Average Humidity 76    
Maximum Humidity 93    
Minimum Humidity 52    
Precipitation  
Precipitation 0.23 in 0.11 in 1.88 in (1952)
Month to date precipitation 5.96 3.13  
Year to date precipitation 9.58 8.32  
Sea Level Pressure  
Sea Level Pressure 29.93 in    
Wind  
Wind Speed 14 mph (West)    
Max Wind Speed 25 mph    
Max Gust Speed 32 mph    
Visibility 10 miles    
Events Rain    
T = Trace of Precipitation, MM = Missing Value Source: NWS Daily Summary

Daily Weather History Graph

Daily Weather History Graph

Search for Another Location

Airport or City:

Trip Planner

Search our weather history database for the weather conditions in past years. The results will help you decide how hot, cold, wet, or windy it might be!

Date:

Astronomy

Mar. 25, 2014 Rise Set
Actual Time 7:28 AM EDT 7:44 PM EDT
Civil Twilight 7:05 AM EDT 8:07 PM EDT
Nautical Twilight 6:38 AM EDT 8:34 PM EDT
Astronomical Twilight 6:10 AM EDT 9:02 PM EDT
Moon 3:22 AM EDT (3/25) 2:38 PM EDT (3/25)
Length of Visible Light 13h 02m
Length of Day
12h 15m
Waning Crescent, 32% of the Moon is Illuminated
Mar 25
Waning Crescent
Mar 30
New
Apr 7
First Quarter
Apr 15
Full
Apr 22
Last Quarter

Hourly Weather History & Observations

Time (EDT) Temp. Dew Point Humidity Pressure Visibility Wind Dir Wind Speed Gust Speed Precip Events Conditions
12:53 AM 66.9 °F 64.9 °F 93% 29.92 in 8.0 mi South 12.7 mph - 0.06 in Rain Light Rain
1:04 AM 68.0 °F 64.0 °F 87% 29.92 in 9.0 mi South 13.8 mph - 0.01 in Rain Light Rain
1:53 AM 66.9 °F 64.0 °F 90% 29.90 in 9.0 mi South 12.7 mph - 0.07 in Rain Light Rain
2:53 AM 66.9 °F 64.0 °F 90% 29.89 in 10.0 mi South 12.7 mph - 0.02 in Rain Light Rain
3:53 AM 68.0 °F 64.9 °F 90% 29.88 in 10.0 mi SSW 12.7 mph - 0.01 in Rain Light Rain
4:42 AM 68.0 °F 64.9 °F 90% 29.90 in 6.0 mi SW 12.7 mph - 0.05 in Rain Light Rain
4:53 AM 68.0 °F 64.9 °F 90% 29.89 in 8.0 mi SW 10.4 mph - 0.06 in Rain Light Rain
5:41 AM 66.9 °F 64.9 °F 93% 29.87 in 10.0 mi SSW 8.1 mph - 0.03 in   Mostly Cloudy
5:53 AM 66.9 °F 64.0 °F 90% 29.87 in 10.0 mi SW 6.9 mph - 0.03 in Rain Light Rain
6:21 AM 68.0 °F 64.0 °F 87% 29.87 in 10.0 mi SSW 9.2 mph - 0.00 in Rain Light Rain
6:31 AM 66.9 °F 64.0 °F 90% 29.87 in 10.0 mi SW 5.8 mph - 0.00 in Rain Light Rain
6:46 AM 66.9 °F 64.0 °F 90% 29.87 in 10.0 mi SW 5.8 mph - 0.00 in Rain Light Rain
6:53 AM 66.9 °F 64.0 °F 90% 29.88 in 10.0 mi SW 6.9 mph - 0.00 in   Partly Cloudy
7:53 AM 68.0 °F 64.9 °F 90% 29.89 in 10.0 mi SW 5.8 mph - N/A   Scattered Clouds
8:39 AM 69.1 °F 66.0 °F 90% 29.91 in 10.0 mi SW 8.1 mph - 0.00 in   Overcast
8:48 AM 69.8 °F 66.2 °F 88% 29.91 in 10.0 mi SW 8.1 mph - 0.00 in Rain Light Rain
8:53 AM 69.1 °F 66.0 °F 90% 29.91 in 10.0 mi SW 6.9 mph - 0.00 in Rain Light Rain
9:35 AM 70.0 °F 66.9 °F 90% 29.92 in 10.0 mi WSW 10.4 mph - 0.01 in Rain Light Rain
9:53 AM 71.1 °F 68.0 °F 90% 29.92 in 10.0 mi WSW 8.1 mph - 0.01 in   Mostly Cloudy
10:03 AM 71.1 °F 66.9 °F 87% 29.92 in 10.0 mi WSW 8.1 mph - N/A   Mostly Cloudy
10:53 AM 71.1 °F 68.0 °F 90% 29.93 in 9.0 mi West 12.7 mph - 0.03 in Rain Light Rain
11:53 AM 73.0 °F 66.0 °F 79% 29.94 in 10.0 mi NW 17.3 mph - 0.00 in   Mostly Cloudy
12:04 PM 72.0 °F 64.9 °F 78% 29.94 in 10.0 mi NW 15.0 mph 24.2 mph N/A   Mostly Cloudy
12:53 PM 70.0 °F 62.1 °F 76% 29.95 in 10.0 mi NNW 18.4 mph 25.3 mph N/A   Mostly Cloudy
1:13 PM 73.0 °F 61.0 °F 66% 29.94 in 10.0 mi NNW 16.1 mph 27.6 mph N/A   Scattered Clouds
1:27 PM 71.1 °F 60.1 °F 68% 29.94 in 10.0 mi NW 18.4 mph 23.0 mph N/A   Mostly Cloudy
1:53 PM 72.0 °F 60.1 °F 66% 29.94 in 10.0 mi NNW 12.7 mph 26.5 mph N/A   Mostly Cloudy
2:18 PM 71.1 °F 57.9 °F 63% 29.94 in 10.0 mi NNW 18.4 mph 29.9 mph N/A   Scattered Clouds
2:25 PM 71.1 °F 59.0 °F 66% 29.94 in 10.0 mi NW 20.7 mph 28.8 mph N/A   Mostly Cloudy
2:53 PM 70.0 °F 57.0 °F 63% 29.94 in 10.0 mi NNW 23.0 mph 28.8 mph N/A   Scattered Clouds
3:15 PM 70.0 °F 57.0 °F 63% 29.93 in 10.0 mi NNW 19.6 mph 29.9 mph N/A   Mostly Cloudy
3:53 PM 71.1 °F 57.0 °F 61% 29.93 in 10.0 mi NNW 21.9 mph 27.6 mph N/A   Mostly Cloudy
4:07 PM 69.1 °F 55.0 °F 61% 29.93 in 10.0 mi NW 21.9 mph 28.8 mph N/A   Scattered Clouds
4:53 PM 70.0 °F 55.0 °F 59% 29.93 in 10.0 mi NW 18.4 mph 26.5 mph N/A   Clear
5:53 PM 68.0 °F 51.1 °F 55% 29.96 in 10.0 mi NW 19.6 mph 26.5 mph N/A   Clear
6:53 PM 66.9 °F 48.0 °F 51% 29.96 in 10.0 mi WNW 15.0 mph - N/A   Clear
7:53 PM 64.0 °F 46.9 °F 54% 29.97 in 10.0 mi NW 17.3 mph - N/A   Clear
8:53 PM 63.0 °F 44.1 °F 50% 29.99 in 10.0 mi NW 16.1 mph 25.3 mph N/A   Clear
9:53 PM 62.1 °F 48.0 °F 60% 30.02 in 10.0 mi NW 13.8 mph - N/A   Clear
10:53 PM 63.0 °F 46.9 °F 56% 30.04 in 10.0 mi NW 16.1 mph 25.3 mph N/A   Clear
11:53 PM 62.1 °F 45.0 °F 53% 30.06 in 10.0 mi NNW 17.3 mph 23.0 mph N/A   Clear